| time (UTC) | temp C | wind direction | speed KPH | gust KPH | rain 1hr cm | rain 24hr cm | rain mn cm | humidity % | barometer mb |
| 20260506211532 | 17 | 324 | 16.1 | 30.6 | 0.00 | 0.00 | 0.00 | 24 | 1009.7 |
| 20260506210032 | 17 | 294 | 14.5 | 24.1 | 0.00 | 0.00 | 0.00 | 25 | 1010.0 |
| 20260506204532 | 16 | 312 | 16.1 | 29.0 | 0.00 | 0.00 | 0.00 | 25 | 1010.2 |
| 20260506203030 | 16 | 249 | 14.5 | 27.4 | 0.00 | 0.00 | 0.00 | 26 | 1010.5 |
| 20260506201541 | 15 | 234 | 8.0 | 20.9 | 0.00 | 0.00 | 0.00 | 25 | 1010.7 |
| 20260506200032 | 15 | 292 | 12.9 | 25.7 | 0.00 | 0.00 | 0.00 | 25 | 1010.9 |
| 20260506194534 | 14 | 292 | 9.7 | 33.8 | 0.00 | 0.00 | 0.00 | 27 | 1011.1 |
| 20260506193030 | 13 | 254 | 17.7 | 35.4 | 0.00 | 0.00 | 0.00 | 26 | 1011.4 |
| 20260506191532 | 13 | 232 | 12.9 | 20.9 | 0.00 | 0.00 | 0.00 | 25 | 1011.6 |
| 20260506190029 | 13 | 204 | 16.1 | 37.0 | 0.00 | 0.00 | 0.00 | 27 | 1012.0 |
| 20260506184536 | 12 | 178 | 17.7 | 37.0 | 0.00 | 0.00 | 0.00 | 25 | 1012.3 |
| 20260506183031 | 12 | 221 | 12.9 | 27.4 | 0.00 | 0.00 | 0.00 | 26 | 1012.6 |
| 20260506181530 | 11 | 196 | 12.9 | 27.4 | 0.00 | 0.00 | 0.00 | 26 | 1012.7 |
| 20260506180032 | 11 | 165 | 16.1 | 32.2 | 0.00 | 0.00 | 0.00 | 28 | 1013.1 |
| 20260506174532 | 10 | 203 | 16.1 | 25.7 | 0.00 | 0.00 | 0.00 | 27 | 1013.4 |
| 20260506173035 | 10 | 207 | 16.1 | 29.0 | 0.00 | 0.00 | 0.00 | 28 | 1013.6 |
| 20260506171539 | 9 | 211 | 12.9 | 27.4 | 0.00 | 0.00 | 0.00 | 31 | 1014.0 |
| 20260506170029 | 9 | 196 | 16.1 | 29.0 | 0.00 | 0.00 | 0.00 | 33 | 1014.4 |
| 20260506164532 | 8 | 169 | 16.1 | 30.6 | 0.00 | 0.00 | 0.00 | 36 | 1014.4 |
| 20260506163039 | 8 | 211 | 19.3 | 29.0 | 0.00 | 0.00 | 0.00 | 38 | 1014.6 |
| 20260506161538 | 7 | 184 | 17.7 | 25.7 | 0.00 | 0.00 | 0.00 | 42 | 1014.9 |
| 20260506160034 | 6 | 244 | 16.1 | 27.4 | 0.00 | 0.00 | 0.00 | 47 | 1015.0 |
| 20260506154537 | 6 | 232 | 19.3 | 29.0 | 0.00 | 0.00 | 0.00 | 49 | 1015.3 |
| 20260506153028 | 5 | 215 | 19.3 | 29.0 | 0.00 | 0.00 | 0.00 | 51 | 1015.4 |
| 20260506151530 | 5 | 219 | 19.3 | 27.4 | 0.00 | 0.00 | 0.00 | 53 | 1015.7 |
| 20260506150032 | 5 | 215 | 16.1 | 25.7 | 0.00 | 0.00 | 0.00 | 54 | 1015.7 |
| 20260506144531 | 4 | 220 | 16.1 | 25.7 | 0.00 | 0.00 | 0.00 | 55 | 1015.9 |
| 20260506143029 | 3 | 254 | 17.7 | 25.7 | 0.00 | 0.00 | 0.00 | 55 | 1016.1 |
| 20260506141526 | 3 | 212 | 16.1 | 22.5 | 0.00 | 0.00 | 0.00 | 54 | 1016.3 |
| 20260506140034 | 3 | 213 | 11.3 | 17.7 | 0.00 | 0.00 | 0.00 | 53 | 1016.3 |
| 20260506134532 | 2 | 184 | 8.0 | 12.9 | 0.00 | 0.00 | 0.00 | 53 | 1016.3 |
| 20260506133031 | 1 | 213 | 6.4 | 11.3 | 0.00 | 0.00 | 0.00 | 56 | 1016.3 |
| 20260506131533 | 0 | 234 | 6.4 | 11.3 | 0.00 | 0.00 | 0.00 | 56 | 1016.3 |
| 20260506130032 | 0 | 262 | 1.6 | 6.4 | 0.00 | 0.00 | 0.00 | 56 | 1016.4 |
| 20260506124528 | -1 | 252 | 3.2 | 6.4 | 0.00 | 0.00 | 0.00 | 56 | 1016.6 |
| 20260506123030 | -1 | 267 | 3.2 | 4.8 | 0.00 | 0.00 | 0.00 | 56 | 1016.6 |
| 20260506121530 | -1 | 268 | 3.2 | 6.4 | 0.00 | 0.00 | 0.00 | 57 | 1016.7 |
| 20260506120034 | -1 | 268 | 3.2 | 6.4 | 0.00 | 0.00 | 0.00 | 56 | 1016.8 |
| 20260506114529 | -1 | 267 | 4.8 | 9.7 | 0.00 | 0.00 | 0.00 | 55 | 1017.0 |
| 20260506113030 | -1 | 268 | 4.8 | 9.7 | 0.00 | 0.00 | 0.00 | 56 | 1017.1 |
| 20260506111530 | -1 | 268 | 8.0 | 11.3 | 0.00 | 0.00 | 0.00 | 55 | 1017.3 |
| 20260506110033 | -1 | 265 | 6.4 | 9.7 | 0.00 | 0.00 | 0.00 | 55 | 1017.5 |
| 20260506104530 | -1 | 265 | 4.8 | 9.7 | 0.00 | 0.00 | 0.00 | 56 | 1017.4 |
| 20260506103033 | -1 | 263 | 4.8 | 6.4 | 0.00 | 0.00 | 0.00 | 56 | 1017.6 |
| 20260506101530 | -1 | 261 | 3.2 | 11.3 | 0.00 | 0.00 | 0.00 | 55 | 1017.7 |
| 20260506100028 | -1 | 263 | 6.4 | 11.3 | 0.00 | 0.00 | 0.00 | 55 | 1017.8 |
| 20260506094530 | -1 | 257 | 3.2 | 8.0 | 0.00 | 0.00 | 0.00 | 54 | 1018.0 |
| 20260506093052 | -1 | 237 | 6.4 | 11.3 | 0.00 | 0.00 | 0.00 | 53 | 1018.0 |
| 20260506091533 | -2 | 259 | 4.8 | 11.3 | 0.00 | 0.00 | 0.00 | 54 | 1018.2 |
| 20260506090029 | -1 | 227 | 4.8 | 8.0 | 0.00 | 0.00 | 0.00 | 52 | 1018.2 |
| 20260506084529 | 0 | 229 | 3.2 | 8.0 | 0.00 | 0.00 | 0.00 | 52 | 1018.4 |
| 20260506083034 | -1 | 336 | 1.6 | 3.2 | 0.00 | 0.00 | 0.00 | 54 | 1018.5 |
| 20260506081532 | -2 | 336 | 1.6 | 4.8 | 0.00 | 0.00 | 0.00 | 55 | 1018.5 |
| 20260506073030 | -1 | 0 | 0.0 | 4.8 | 0.00 | 0.00 | 0.00 | 55 | 1018.8 |
| 20260506071534 | -2 | 0 | 0.0 | 6.4 | 0.00 | 0.00 | 0.00 | 54 | 1018.8 |
| 20260506061540 | -1 | 326 | 3.2 | 11.3 | 0.00 | 0.00 | 0.00 | 54 | 1019.2 |
| 20260506044529 | 1 | 336 | 3.2 | 6.4 | 0.00 | 0.00 | 0.00 | 47 | 1019.3 |
| 20260506043033 | 1 | 351 | 3.2 | 6.4 | 0.00 | 0.00 | 0.00 | 45 | 1019.4 |
| 20260506041530 | 2 | 355 | 4.8 | 6.4 | 0.00 | 0.00 | 0.00 | 45 | 1019.5 |
| 20260506040028 | 1 | 344 | 3.2 | 8.0 | 0.00 | 0.00 | 0.00 | 44 | 1019.6 |
| 20260506034528 | 3 | 34 | 8.0 | 9.7 | 0.00 | 0.00 | 0.00 | 42 | 1019.4 |
| 20260506033034 | 3 | 35 | 8.0 | 9.7 | 0.00 | 0.00 | 0.00 | 42 | 1019.3 |
| 20260506031533 | 3 | 36 | 9.7 | 14.5 | 0.00 | 0.00 | 0.00 | 41 | 1019.3 |
| 20260506030033 | 3 | 32 | 11.3 | 14.5 | 0.00 | 0.00 | 0.00 | 41 | 1019.2 |
| 20260506024528 | 3 | 26 | 9.7 | 17.7 | 0.00 | 0.00 | 0.00 | 40 | 1019.2 |
| 20260506023028 | 5 | 19 | 14.5 | 19.3 | 0.00 | 0.00 | 0.00 | 38 | 1019.1 |
| 20260506021532 | 6 | 22 | 19.3 | 25.7 | 0.00 | 0.00 | 0.00 | 36 | 1019.0 |
| 20260506020105 | 6 | 5 | 19.3 | 33.8 | 0.00 | 0.00 | 0.00 | 36 | 1019.0 |
| 20260506014531 | 6 | 13 | 20.9 | 35.4 | 0.00 | 0.00 | 0.00 | 36 | 1019.0 |
| 20260506013031 | 6 | 346 | 17.7 | 38.6 | 0.00 | 0.00 | 0.00 | 34 | 1018.8 |
| 20260506011530 | 7 | 9 | 22.5 | 35.4 | 0.00 | 0.00 | 0.00 | 34 | 1018.7 |
| 20260506010031 | 7 | 15 | 20.9 | 38.6 | 0.00 | 0.00 | 0.00 | 35 | 1018.7 |
| 20260506004526 | 7 | 19 | 27.4 | 41.8 | 0.00 | 0.00 | 0.00 | 35 | 1018.7 |
| 20260506003030 | 7 | 344 | 22.5 | 33.8 | 0.00 | 0.00 | 0.00 | 34 | 1018.7 |
| 20260506001533 | 7 | 33 | 25.7 | 41.8 | 0.00 | 0.00 | 0.00 | 34 | 1018.7 |
| 20260506000050 | 7 | 346 | 20.9 | 40.2 | 0.00 | 0.00 | 0.00 | 35 | 1018.6 |
| 20260505234534 | 8 | 18 | 24.1 | 43.5 | 0.00 | 0.00 | 0.00 | 35 | 1018.7 |
| 20260505233030 | 8 | 5 | 27.4 | 45.1 | 0.00 | 0.00 | 0.00 | 34 | 1018.7 |
| 20260505231530 | 7 | 334 | 30.6 | 40.2 | 0.00 | 0.00 | 0.00 | 34 | 1018.6 |
| 20260505230041 | 7 | 335 | 29.0 | 43.5 | 0.00 | 0.00 | 0.00 | 33 | 1018.6 |
| 20260505224528 | 8 | 15 | 37.0 | 48.3 | 0.00 | 0.00 | 0.00 | 34 | 1018.7 |
| 20260505223037 | 8 | 355 | 29.0 | 45.1 | 0.00 | 0.00 | 0.00 | 33 | 1018.6 |
| 20260505221530 | 8 | 13 | 32.2 | 48.3 | 0.00 | 0.00 | 0.00 | 35 | 1018.5 |
| 20260505220028 | 7 | 352 | 35.4 | 48.3 | 0.00 | 0.00 | 0.00 | 36 | 1018.7 |
| 20260505214532 | 7 | 5 | 30.6 | 54.7 | 0.00 | 0.00 | 0.00 | 34 | 1018.7 |
| 20260505213030 | 7 | 5 | 30.6 | 43.5 | 0.00 | 0.00 | 0.00 | 36 | 1018.8 |